Time,TemperatureF,DewpointF,PressureIn,WindDirection,WindDirectionDegrees,WindSpeedMPH,WindSpeedGustMPH,Humidity,HourlyPrecipIn,Conditions,Clouds,dailyrainin,SoftwareType,DateUTC
2013-02-22 00:00:00,25.2,15.4,30.19,NW,315,6.3,13.2,66,0.00,,,0.00,WUHU216HW,2013-02-22 05:00:00,
2013-02-22 00:05:00,25.2,15.4,30.19,West,270,4.7,13.2,66,0.00,,,0.00,WUHU216HW,2013-02-22 05:05:00,
2013-02-22 00:10:00,25.2,15.7,30.20,West,270,11.0,11.0,67,0.00,,,0.00,WUHU216HW,2013-02-22 05:10:00,
2013-02-22 00:15:00,25.2,15.4,30.21,West,270,4.0,11.0,66,0.00,,,0.00,WUHU216HW,2013-02-22 05:15:00,
2013-02-22 00:20:00,25.2,15.4,30.21,NW,315,5.1,11.0,66,0.00,,,0.00,WUHU216HW,2013-02-22 05:20:00,
2013-02-22 00:25:00,25.2,15.4,30.21,NNE,23,3.4,8.5,66,0.00,,,0.00,WUHU216HW,2013-02-22 05:25:00,
2013-02-22 00:30:00,25.2,15.7,30.22,NW,315,5.1,8.5,67,0.00,,,0.00,WUHU216HW,2013-02-22 05:30:00,
2013-02-22 00:35:00,25.2,16.0,30.23,WNW,293,6.3,9.8,68,0.00,,,0.00,WUHU216HW,2013-02-22 05:35:00,
2013-02-22 00:40:00,25.0,15.6,30.23,NW,315,9.6,13.2,67,0.00,,,0.00,WUHU216HW,2013-02-22 05:40:00,
2013-02-22 00:45:00,25.0,15.6,30.24,NW,315,5.4,13.2,67,0.00,,,0.00,WUHU216HW,2013-02-22 05:45:00,
2013-02-22 00:50:00,25.0,15.8,30.24,NW,315,6.9,11.4,68,0.00,,,0.00,WUHU216HW,2013-02-22 05:50:00,
2013-02-22 00:55:00,25.0,15.8,30.24,NNE,23,4.0,11.4,68,0.00,,,0.00,WUHU216HW,2013-02-22 05:55:00,
2013-02-22 01:00:00,25.0,16.2,30.24,South,180,6.0,13.4,69,0.00,,,0.00,WUHU216HW,2013-02-22 06:00:00,
2013-02-22 01:05:00,25.2,16.4,30.24,WNW,293,10.3,13.4,69,0.00,,,0.00,WUHU216HW,2013-02-22 06:05:00,
2013-02-22 01:10:00,25.2,16.4,30.24,NW,315,7.6,12.1,69,0.00,,,0.00,WUHU216HW,2013-02-22 06:10:00,
2013-02-22 01:15:00,25.2,16.4,30.24,NW,315,12.8,12.8,69,0.00,,,0.00,WUHU216HW,2013-02-22 06:15:00,
2013-02-22 01:20:00,25.2,16.7,30.24,WNW,293,13.6,13.6,70,0.00,,,0.00,WUHU216HW,2013-02-22 06:20:00,
2013-02-22 01:25:00,25.2,16.4,30.25,NW,315,2.5,13.6,69,0.00,,,0.00,WUHU216HW,2013-02-22 06:25:00,
2013-02-22 01:30:00,25.2,16.7,30.25,North,0,4.9,13.6,70,0.00,,,0.00,WUHU216HW,2013-02-22 06:30:00,
2013-02-22 01:35:00,25.2,16.7,30.25,NNE,23,2.5,9.6,70,0.00,,,0.00,WUHU216HW,2013-02-22 06:35:00,
2013-02-22 01:40:00,25.2,16.7,30.25,WSW,248,2.5,7.6,70,0.00,,,0.00,WUHU216HW,2013-02-22 06:40:00,
2013-02-22 01:45:00,25.2,16.7,30.25,NW,315,4.7,7.6,70,0.00,,,0.00,WUHU216HW,2013-02-22 06:45:00,
2013-02-22 01:50:00,25.2,16.7,30.24,NNW,338,4.0,9.6,70,0.00,,,0.00,WUHU216HW,2013-02-22 06:50:00,
2013-02-22 01:55:00,25.2,16.7,30.24,NNW,338,1.1,9.6,70,0.00,,,0.00,WUHU216HW,2013-02-22 06:55:00,
2013-02-22 02:00:00,25.2,16.7,30.24,North,0,4.3,9.4,70,0.00,,,0.00,WUHU216HW,2013-02-22 07:00:00,
2013-02-22 02:05:00,25.2,16.7,30.24,North,0,1.1,9.4,70,0.00,,,0.00,WUHU216HW,2013-02-22 07:05:00,
2013-02-22 02:10:00,25.2,16.7,30.24,NNW,338,3.4,13.4,70,0.00,,,0.00,WUHU216HW,2013-02-22 07:10:00,
2013-02-22 02:15:00,25.2,16.7,30.25,NNW,338,4.0,13.4,70,0.00,,,0.00,WUHU216HW,2013-02-22 07:15:00,
2013-02-22 02:20:00,25.4,17.3,30.24,NNW,338,4.3,11.0,71,0.00,,,0.00,WUHU216HW,2013-02-22 07:20:00,
2013-02-22 02:25:00,25.4,17.3,30.24,North,0,2.9,11.0,71,0.00,,,0.00,WUHU216HW,2013-02-22 07:25:00,
2013-02-22 02:30:00,25.4,17.3,30.25,NNW,338,4.0,9.6,71,0.00,,,0.00,WUHU216HW,2013-02-22 07:30:00,
2013-02-22 02:35:00,25.4,17.3,30.25,NNW,338,2.2,7.4,71,0.00,,,0.00,WUHU216HW,2013-02-22 07:35:00,
2013-02-22 02:40:00,25.4,17.6,30.25,NW,315,8.1,8.1,72,0.00,,,0.00,WUHU216HW,2013-02-22 07:40:00,
2013-02-22 02:45:00,25.4,17.3,30.25,North,0,1.8,8.1,71,0.00,,,0.00,WUHU216HW,2013-02-22 07:45:00,
2013-02-22 02:50:00,25.4,17.6,30.25,NW,315,3.4,8.1,72,0.00,,,0.00,WUHU216HW,2013-02-22 07:50:00,
2013-02-22 02:55:00,25.4,17.3,30.26,North,0,3.8,7.2,71,0.00,,,0.00,WUHU216HW,2013-02-22 07:55:00,
2013-02-22 03:00:00,25.4,17.6,30.26,NNW,338,3.1,5.6,72,0.00,,,0.00,WUHU216HW,2013-02-22 08:00:00,
2013-02-22 03:05:00,25.4,17.6,30.26,North,0,2.5,6.9,72,0.00,,,0.00,WUHU216HW,2013-02-22 08:05:00,
2013-02-22 03:09:00,25.4,17.6,30.26,NW,315,6.9,6.9,72,0.00,,,0.00,WUHU216HW,2013-02-22 08:09:00,
2013-02-22 03:15:00,25.4,17.6,30.26,North,0,2.0,9.6,72,0.00,,,0.00,WUHU216HW,2013-02-22 08:15:00,
2013-02-22 03:20:00,25.6,17.7,30.26,NNW,338,1.1,9.6,72,0.00,,,0.00,WUHU216HW,2013-02-22 08:20:00,
2013-02-22 03:25:00,25.4,17.6,30.26,NNW,338,3.6,5.8,72,0.00,,,0.00,WUHU216HW,2013-02-22 08:25:00,
2013-02-22 03:30:00,25.6,17.7,30.26,NNW,338,2.0,5.8,72,0.00,,,0.00,WUHU216HW,2013-02-22 08:30:00,
2013-02-22 03:35:00,25.6,17.7,30.27,NW,315,2.7,4.7,72,0.00,,,0.00,WUHU216HW,2013-02-22 08:35:00,
2013-02-22 03:40:00,25.4,17.6,30.27,NW,315,2.9,6.5,72,0.00,,,0.00,WUHU216HW,2013-02-22 08:40:00,
2013-02-22 03:44:00,25.4,17.6,30.27,North,0,1.8,6.5,72,0.00,,,0.00,WUHU216HW,2013-02-22 08:44:00,
2013-02-22 03:49:00,25.4,17.6,30.27,WNW,293,5.4,5.6,72,0.00,,,0.00,WUHU216HW,2013-02-22 08:49:00,
2013-02-22 03:54:00,25.4,17.6,30.27,North,0,3.6,5.6,72,0.00,,,0.00,WUHU216HW,2013-02-22 08:54:00,
2013-02-22 03:59:00,25.4,17.6,30.27,NNE,23,1.8,5.4,72,0.00,,,0.00,WUHU216HW,2013-02-22 08:59:00,
2013-02-22 04:04:00,25.4,17.6,30.27,NNW,338,2.5,4.7,72,0.00,,,0.00,WUHU216HW,2013-02-22 09:04:00,
2013-02-22 04:09:00,25.4,17.6,30.28,North,0,1.1,7.4,72,0.00,,,0.00,WUHU216HW,2013-02-22 09:09:00,
2013-02-22 04:14:00,25.4,17.6,30.28,NNW,338,1.1,7.4,72,0.00,,,0.00,WUHU216HW,2013-02-22 09:14:00,
2013-02-22 04:19:00,25.4,17.9,30.28,NNW,338,1.8,5.4,73,0.00,,,0.00,WUHU216HW,2013-02-22 09:19:00,
2013-02-22 04:24:00,25.4,17.6,30.27,NW,315,3.1,5.4,72,0.00,,,0.00,WUHU216HW,2013-02-22 09:24:00,
2013-02-22 04:29:00,25.6,18.1,30.27,North,0,3.8,4.7,73,0.00,,,0.00,WUHU216HW,2013-02-22 09:29:00,
2013-02-22 04:34:00,25.6,17.7,30.28,NNW,338,1.8,4.7,72,0.00,,,0.00,WUHU216HW,2013-02-22 09:34:00,
2013-02-22 04:39:00,25.6,17.7,30.28,NNW,338,1.6,4.7,72,0.00,,,0.00,WUHU216HW,2013-02-22 09:39:00,
2013-02-22 04:44:00,25.6,17.7,30.28,NNW,338,1.1,3.6,72,0.00,,,0.00,WUHU216HW,2013-02-22 09:44:00,
2013-02-22 04:49:00,25.6,17.7,30.28,North,0,3.8,4.0,72,0.00,,,0.00,WUHU216HW,2013-02-22 09:49:00,
2013-02-22 04:54:00,25.6,17.7,30.29,NNE,23,1.8,4.5,72,0.00,,,0.00,WUHU216HW,2013-02-22 09:54:00,
2013-02-22 04:59:00,25.6,17.7,30.29,NNW,338,2.2,4.5,72,0.00,,,0.00,WUHU216HW,2013-02-22 09:59:00,
2013-02-22 05:04:00,25.6,17.7,30.28,NNW,338,1.1,4.3,72,0.00,,,0.00,WUHU216HW,2013-02-22 10:04:00,
2013-02-22 05:09:00,25.6,17.7,30.28,NNW,338,1.8,3.6,72,0.00,,,0.00,WUHU216HW,2013-02-22 10:09:00,
2013-02-22 05:14:00,25.4,17.6,30.28,NNW,338,0.9,3.6,72,0.00,,,0.00,WUHU216HW,2013-02-22 10:14:00,
2013-02-22 05:19:00,25.2,17.4,30.28,North,0,0.4,2.9,72,0.00,,,0.00,WUHU216HW,2013-02-22 10:19:00,
2013-02-22 05:24:00,25.2,17.7,30.29,NNW,338,1.1,2.5,73,0.00,,,0.00,WUHU216HW,2013-02-22 10:24:00,
2013-02-22 05:29:00,25.2,17.7,30.29,NNW,338,0.2,2.5,73,0.00,,,0.00,WUHU216HW,2013-02-22 10:29:00,
2013-02-22 05:34:00,25.0,17.6,30.29,North,0,0.7,2.5,73,0.00,,,0.00,WUHU216HW,2013-02-22 10:34:00,
2013-02-22 05:39:00,25.0,17.6,30.30,NNW,338,0.7,1.8,73,0.00,,,0.00,WUHU216HW,2013-02-22 10:39:00,
2013-02-22 05:44:00,24.8,17.4,30.30,NNW,338,0.4,1.8,73,0.00,,,0.00,WUHU216HW,2013-02-22 10:44:00,
2013-02-22 05:49:00,24.8,17.4,30.31,West,270,1.3,3.4,73,0.00,,,0.00,WUHU216HW,2013-02-22 10:49:00,
2013-02-22 05:54:00,24.8,17.4,30.31,NW,315,3.4,3.8,73,0.00,,,0.00,WUHU216HW,2013-02-22 10:54:00,
2013-02-22 05:59:00,24.8,17.4,30.31,WNW,293,1.8,4.9,73,0.00,,,0.00,WUHU216HW,2013-02-22 10:59:00,
2013-02-22 06:04:00,24.8,17.6,30.31,WNW,293,3.8,4.9,74,0.00,,,0.00,WUHU216HW,2013-02-22 11:04:00,
2013-02-22 06:09:00,24.8,17.4,30.32,NNW,338,2.0,5.4,73,0.00,,,0.00,WUHU216HW,2013-02-22 11:09:00,
2013-02-22 06:14:00,24.8,17.6,30.32,NE,45,0.7,5.4,74,0.00,,,0.00,WUHU216HW,2013-02-22 11:14:00,
2013-02-22 06:19:00,24.8,17.6,30.32,NNW,338,1.6,4.5,74,0.00,,,0.00,WUHU216HW,2013-02-22 11:19:00,
2013-02-22 06:24:00,24.7,17.2,30.34,NW,315,2.5,4.7,73,0.00,,,0.00,WUHU216HW,2013-02-22 11:24:00,
2013-02-22 06:29:00,24.7,17.6,30.35,WNW,293,4.9,5.4,74,0.00,,,0.00,WUHU216HW,2013-02-22 11:29:00,
2013-02-22 06:34:00,24.7,17.6,30.35,NNW,338,0.9,5.8,74,0.00,,,0.00,WUHU216HW,2013-02-22 11:34:00,
2013-02-22 06:39:00,24.7,17.8,30.35,NW,315,3.4,5.8,75,0.00,,,0.00,WUHU216HW,2013-02-22 11:39:00,
2013-02-22 06:44:00,24.8,18.0,30.35,NW,315,4.9,6.3,75,0.00,,,0.00,WUHU216HW,2013-02-22 11:44:00,
2013-02-22 06:49:00,24.7,17.8,30.35,NNW,338,5.1,6.5,75,0.00,,,0.00,WUHU216HW,2013-02-22 11:49:00,
2013-02-22 06:54:00,24.8,18.0,30.36,NW,315,4.0,8.1,75,0.00,,,0.00,WUHU216HW,2013-02-22 11:54:00,
2013-02-22 06:59:00,24.8,18.0,30.36,NW,315,1.1,8.1,75,0.00,,,0.00,WUHU216HW,2013-02-22 11:59:00,
2013-02-22 07:04:00,25.0,18.2,30.36,NNW,338,1.8,6.0,75,0.00,,,0.00,WUHU216HW,2013-02-22 12:04:00,
2013-02-22 07:09:00,25.2,18.4,30.37,NNW,338,1.8,6.0,75,0.00,,,0.00,WUHU216HW,2013-02-22 12:09:00,
2013-02-22 07:14:00,25.2,18.0,30.37,North,0,2.7,3.4,74,0.00,,,0.00,WUHU216HW,2013-02-22 12:14:00,
2013-02-22 07:19:00,25.6,18.4,30.37,North,0,2.7,4.3,74,0.00,,,0.00,WUHU216HW,2013-02-22 12:19:00,
2013-02-22 07:24:00,25.6,18.4,30.37,NNW,338,1.1,5.6,74,0.00,,,0.00,WUHU216HW,2013-02-22 12:24:00,
2013-02-22 07:29:00,25.7,18.5,30.37,NW,315,2.0,5.6,74,0.00,,,0.00,WUHU216HW,2013-02-22 12:29:00,
2013-02-22 07:34:00,25.9,18.7,30.37,NW,315,1.3,5.1,74,0.00,,,0.00,WUHU216HW,2013-02-22 12:34:00,
2013-02-22 07:39:00,26.3,18.7,30.38,NNW,338,3.4,4.0,73,0.00,,,0.00,WUHU216HW,2013-02-22 12:39:00,
2013-02-22 07:44:00,26.5,18.9,30.37,NW,315,1.1,4.7,73,0.00,,,0.00,WUHU216HW,2013-02-22 12:44:00,
2013-02-22 07:49:00,26.8,19.0,30.38,North,0,1.6,5.4,72,0.00,,,0.00,WUHU216HW,2013-02-22 12:49:00,
2013-02-22 07:54:00,27.0,19.2,30.38,NNW,338,2.7,6.0,72,0.00,,,0.00,WUHU216HW,2013-02-22 12:54:00,
2013-02-22 07:59:00,27.4,19.5,30.39,NNW,338,2.0,6.0,72,0.00,,,0.00,WUHU216HW,2013-02-22 12:59:00,
2013-02-22 08:04:00,27.7,19.9,30.39,North,0,4.7,7.6,72,0.00,,,0.00,WUHU216HW,2013-02-22 13:04:00,
2013-02-22 08:09:00,28.1,19.9,30.39,NNW,338,1.1,7.6,71,0.00,,,0.00,WUHU216HW,2013-02-22 13:09:00,
2013-02-22 08:14:00,28.4,20.0,30.39,North,0,1.8,5.4,70,0.00,,,0.00,WUHU216HW,2013-02-22 13:14:00,
2013-02-22 08:19:00,28.8,20.4,30.39,North,0,0.7,5.4,70,0.00,,,0.00,WUHU216HW,2013-02-22 13:19:00,
2013-02-22 08:24:00,29.2,20.3,30.39,NNW,338,2.2,5.4,69,0.00,,,0.00,WUHU216HW,2013-02-22 13:24:00,
2013-02-22 08:29:00,29.9,20.5,30.38,NNE,23,5.6,6.3,68,0.00,,,0.00,WUHU216HW,2013-02-22 13:29:00,
2013-02-22 08:34:00,30.4,20.7,30.38,North,0,0.7,6.3,67,0.00,,,0.00,WUHU216HW,2013-02-22 13:34:00,
2013-02-22 08:39:00,31.7,21.6,30.38,NNW,338,1.8,6.3,66,0.00,,,0.00,WUHU216HW,2013-02-22 13:39:00,
2013-02-22 08:44:00,33.1,22.6,30.38,NE,45,5.4,7.4,65,0.00,,,0.00,WUHU216HW,2013-02-22 13:44:00,
2013-02-22 08:49:00,34.0,22.3,30.38,NNE,23,2.5,10.1,62,0.00,,,0.00,WUHU216HW,2013-02-22 13:49:00,
2013-02-22 08:54:00,35.6,23.6,30.38,NNE,23,3.6,10.1,61,0.00,,,0.00,WUHU216HW,2013-02-22 13:54:00,
2013-02-22 08:59:00,36.4,22.6,30.38,NNW,338,8.1,10.1,57,0.00,,,0.00,WUHU216HW,2013-02-22 13:59:00,
2013-02-22 09:04:00,37.3,23.4,30.37,NNW,338,2.7,10.1,57,0.00,,,0.00,WUHU216HW,2013-02-22 14:04:00,
2013-02-22 09:09:00,38.9,23.6,30.37,NNW,338,3.4,8.9,54,0.00,,,0.00,WUHU216HW,2013-02-22 14:09:00,
2013-02-22 09:14:00,39.6,22.9,30.37,North,0,3.4,8.9,51,0.00,,,0.00,WUHU216HW,2013-02-22 14:14:00,
2013-02-22 09:19:00,40.1,23.0,30.37,NNE,23,8.7,11.0,50,0.00,,,0.00,WUHU216HW,2013-02-22 14:19:00,
2013-02-22 09:24:00,41.0,23.2,30.37,North,0,2.0,11.0,49,0.00,,,0.00,WUHU216HW,2013-02-22 14:24:00,
2013-02-22 09:29:00,41.6,23.2,30.37,NNW,338,3.6,9.4,48,0.00,,,0.00,WUHU216HW,2013-02-22 14:29:00,
2013-02-22 09:34:00,42.1,23.8,30.38,North,0,1.6,12.8,48,0.00,,,0.00,WUHU216HW,2013-02-22 14:34:00,
2013-02-22 09:39:00,43.6,24.6,30.38,NNE,23,14.3,14.3,47,0.00,,,0.00,WUHU216HW,2013-02-22 14:39:00,
2013-02-22 09:44:00,42.8,21.8,30.37,North,0,6.3,15.7,43,0.00,,,0.00,WUHU216HW,2013-02-22 14:44:00,
2013-02-22 09:49:00,43.4,23.9,30.37,NNE,23,3.4,15.7,46,0.00,,,0.00,WUHU216HW,2013-02-22 14:49:00,
2013-02-22 09:54:00,45.0,25.4,30.37,NNW,338,2.5,13.2,46,0.00,,,0.00,WUHU216HW,2013-02-22 14:54:00,
2013-02-22 09:59:00,44.6,23.9,30.37,NNE,23,5.4,5.8,44,0.00,,,0.00,WUHU216HW,2013-02-22 14:59:00,
2013-02-22 10:04:00,45.0,23.8,30.37,NE,45,9.2,10.3,43,0.00,,,0.00,WUHU216HW,2013-02-22 15:04:00,
2013-02-22 10:09:00,46.1,24.1,30.37,NNE,23,4.0,10.3,42,0.00,,,0.00,WUHU216HW,2013-02-22 15:09:00,
2013-02-22 10:14:00,47.2,24.6,30.37,NE,45,4.0,9.2,41,0.00,,,0.00,WUHU216HW,2013-02-22 15:14:00,
2013-02-22 10:19:00,47.2,23.4,30.37,NE,45,6.0,6.5,39,0.00,,,0.00,WUHU216HW,2013-02-22 15:19:00,
2013-02-22 10:24:00,47.2,22.1,30.37,East,90,1.8,6.5,37,0.00,,,0.00,WUHU216HW,2013-02-22 15:24:00,
2013-02-22 10:29:00,47.2,24.0,30.38,NE,45,4.9,6.9,40,0.00,,,0.00,WUHU216HW,2013-02-22 15:29:00,
2013-02-22 10:34:00,45.2,21.6,30.38,ENE,68,3.4,9.2,39,0.00,,,0.00,WUHU216HW,2013-02-22 15:34:00,
2013-02-22 10:39:00,45.5,22.6,30.38,NNE,23,2.2,9.2,40,0.00,,,0.00,WUHU216HW,2013-02-22 15:39:00,
2013-02-22 10:44:00,46.6,22.9,30.38,ENE,68,7.6,7.6,39,0.00,,,0.00,WUHU216HW,2013-02-22 15:44:00,
2013-02-22 10:49:00,47.2,22.7,30.37,NNW,338,1.1,8.1,38,0.00,,,0.00,WUHU216HW,2013-02-22 15:49:00,
2013-02-22 10:54:00,48.1,23.5,30.37,NE,45,8.7,8.7,38,0.00,,,0.00,WUHU216HW,2013-02-22 15:54:00,
2013-02-22 10:59:00,48.1,23.5,30.37,NNE,23,6.3,8.7,38,0.00,,,0.00,WUHU216HW,2013-02-22 15:59:00,
2013-02-22 11:04:00,49.0,23.0,30.37,NNE,23,8.3,8.7,36,0.00,,,0.00,WUHU216HW,2013-02-22 16:04:00,
2013-02-22 11:09:00,48.8,23.5,30.37,NE,45,3.6,8.3,37,0.00,,,0.00,WUHU216HW,2013-02-22 16:09:00,
2013-02-22 11:14:00,48.1,22.9,30.36,NE,45,2.2,6.9,37,0.00,,,0.00,WUHU216HW,2013-02-22 16:14:00,
2013-02-22 11:19:00,47.5,23.0,30.36,NE,45,4.7,7.2,38,0.00,,,0.00,WUHU216HW,2013-02-22 16:19:00,
2013-02-22 11:24:00,45.9,21.6,30.36,NNE,23,1.1,7.2,38,0.00,,,0.00,WUHU216HW,2013-02-22 16:24:00,
2013-02-22 11:29:00,46.4,21.4,30.36,NNE,23,5.6,5.8,37,0.00,,,0.00,WUHU216HW,2013-02-22 16:29:00,
2013-02-22 11:34:00,46.4,22.1,30.36,ENE,68,5.8,6.9,38,0.00,,,0.00,WUHU216HW,2013-02-22 16:34:00,
2013-02-22 11:39:00,47.2,22.7,30.36,North,0,4.0,9.8,38,0.00,,,0.00,WUHU216HW,2013-02-22 16:39:00,
2013-02-22 11:44:00,49.0,23.7,30.35,NE,45,2.7,9.8,37,0.00,,,0.00,WUHU216HW,2013-02-22 16:44:00,
2013-02-22 11:49:00,48.6,22.7,30.35,ENE,68,4.3,7.4,36,0.00,,,0.00,WUHU216HW,2013-02-22 16:49:00,
2013-02-22 11:54:00,47.0,20.5,30.35,NW,315,6.3,7.4,35,0.00,,,0.00,WUHU216HW,2013-02-22 16:54:00,
2013-02-22 11:59:00,46.8,21.1,30.35,East,90,3.8,7.4,36,0.00,,,0.00,WUHU216HW,2013-02-22 16:59:00,
2013-02-22 12:04:00,45.7,20.1,30.35,NE,45,3.8,8.9,36,0.00,,,0.00,WUHU216HW,2013-02-22 17:04:00,
2013-02-22 12:09:00,45.0,20.1,30.35,NNW,338,2.0,8.9,37,0.00,,,0.00,WUHU216HW,2013-02-22 17:09:00,
2013-02-22 12:14:00,44.8,20.0,30.35,NNE,23,12.5,12.5,37,0.00,,,0.00,WUHU216HW,2013-02-22 17:14:00,
2013-02-22 12:19:00,43.4,19.4,30.35,NE,45,3.4,12.5,38,0.00,,,0.00,WUHU216HW,2013-02-22 17:19:00,
2013-02-22 12:24:00,43.0,19.0,30.35,NNW,338,1.1,12.5,38,0.00,,,0.00,WUHU216HW,2013-02-22 17:24:00,
2013-02-22 12:29:00,42.8,19.5,30.35,NNE,23,6.3,7.2,39,0.00,,,0.00,WUHU216HW,2013-02-22 17:29:00,
2013-02-22 12:34:00,42.3,19.0,30.35,ESE,113,1.1,9.2,39,0.00,,,0.00,WUHU216HW,2013-02-22 17:34:00,
2013-02-22 12:39:00,41.9,19.4,30.34,North,0,3.6,9.2,40,0.00,,,0.00,WUHU216HW,2013-02-22 17:39:00,
2013-02-22 12:44:00,42.1,18.8,30.34,NNE,23,7.8,13.4,39,0.00,,,0.00,WUHU216HW,2013-02-22 17:44:00,
2013-02-22 12:49:00,42.1,18.8,30.35,West,270,1.1,13.4,39,0.00,,,0.00,WUHU216HW,2013-02-22 17:49:00,
2013-02-22 12:54:00,42.3,19.7,30.34,NE,45,6.3,7.8,40,0.00,,,0.00,WUHU216HW,2013-02-22 17:54:00,
2013-02-22 12:59:00,41.9,18.7,30.35,SSE,158,2.5,7.2,39,0.00,,,0.00,WUHU216HW,2013-02-22 17:59:00,
2013-02-22 13:04:00,41.4,18.9,30.35,SE,135,3.8,7.2,40,0.00,,,0.00,WUHU216HW,2013-02-22 18:04:00,
2013-02-22 13:09:00,40.7,18.7,30.35,NW,315,0.9,4.5,41,0.00,,,0.00,WUHU216HW,2013-02-22 18:09:00,
2013-02-22 13:14:00,41.0,19.6,30.35,NE,45,1.8,4.5,42,0.00,,,0.00,WUHU216HW,2013-02-22 18:14:00,
2013-02-22 13:19:00,41.6,19.5,30.34,NNE,23,4.7,4.7,41,0.00,,,0.00,WUHU216HW,2013-02-22 18:19:00,
2013-02-22 13:24:00,41.9,19.4,30.35,ESE,113,3.1,6.0,40,0.00,,,0.00,WUHU216HW,2013-02-22 18:24:00,
2013-02-22 13:29:00,41.6,19.0,30.35,NW,315,2.0,6.0,40,0.00,,,0.00,WUHU216HW,2013-02-22 18:29:00,
2013-02-22 13:34:00,41.8,19.7,30.34,North,0,2.5,4.3,41,0.00,,,0.00,WUHU216HW,2013-02-22 18:34:00,
2013-02-22 13:39:00,41.9,19.9,30.35,NNW,338,0.4,4.7,41,0.00,,,0.00,WUHU216HW,2013-02-22 18:39:00,
2013-02-22 13:44:00,42.1,19.5,30.35,NNE,23,0.9,4.7,40,0.00,,,0.00,WUHU216HW,2013-02-22 18:44:00,
2013-02-22 13:49:00,42.1,20.1,30.34,SE,135,2.0,5.4,41,0.00,,,0.00,WUHU216HW,2013-02-22 18:49:00,
2013-02-22 13:54:00,41.4,18.2,30.34,SSE,158,2.7,5.4,39,0.00,,,0.00,WUHU216HW,2013-02-22 18:54:00,
2013-02-22 13:59:00,41.2,18.7,30.34,SE,135,1.8,2.9,40,0.00,,,0.00,WUHU216HW,2013-02-22 18:59:00,
2013-02-22 14:04:00,41.4,18.9,30.34,SW,225,3.4,3.4,40,0.00,,,0.00,WUHU216HW,2013-02-22 19:04:00,
2013-02-22 14:09:00,40.9,17.7,30.34,SE,135,1.6,4.0,39,0.00,,,0.00,WUHU216HW,2013-02-22 19:09:00,
2013-02-22 14:14:00,40.7,18.7,30.33,NNE,23,3.8,6.7,41,0.00,,,0.00,WUHU216HW,2013-02-22 19:14:00,
2013-02-22 14:19:00,41.0,19.1,30.34,ENE,68,2.0,6.7,41,0.00,,,0.00,WUHU216HW,2013-02-22 19:19:00,
2013-02-22 14:24:00,41.0,18.5,30.33,South,180,3.6,4.7,40,0.00,,,0.00,WUHU216HW,2013-02-22 19:24:00,
2013-02-22 14:29:00,40.7,19.3,30.34,SE,135,3.1,4.7,42,0.00,,,0.00,WUHU216HW,2013-02-22 19:29:00,
2013-02-22 14:34:00,40.9,19.5,30.34,East,90,1.8,4.0,42,0.00,,,0.00,WUHU216HW,2013-02-22 19:34:00,
2013-02-22 14:39:00,40.9,18.9,30.34,NE,45,2.2,3.1,41,0.00,,,0.00,WUHU216HW,2013-02-22 19:39:00,
2013-02-22 14:44:00,41.0,18.5,30.34,East,90,2.0,4.7,40,0.00,,,0.00,WUHU216HW,2013-02-22 19:44:00,
2013-02-22 14:49:00,41.0,19.1,30.34,West,270,0.2,4.7,41,0.00,,,0.00,WUHU216HW,2013-02-22 19:49:00,
2013-02-22 14:54:00,41.2,19.3,30.34,NW,315,2.5,4.7,41,0.00,,,0.00,WUHU216HW,2013-02-22 19:54:00,
2013-02-22 14:59:00,41.0,19.6,30.34,SE,135,2.9,4.7,42,0.00,,,0.00,WUHU216HW,2013-02-22 19:59:00,
2013-02-22 15:04:00,40.7,18.7,30.34,SSE,158,1.8,4.0,41,0.00,,,0.00,WUHU216HW,2013-02-22 20:04:00,
2013-02-22 15:09:00,40.7,18.2,30.34,WSW,248,1.3,4.0,40,0.00,,,0.00,WUHU216HW,2013-02-22 20:09:00,
2013-02-22 15:14:00,40.7,18.2,30.34,South,180,1.8,4.7,40,0.00,,,0.00,WUHU216HW,2013-02-22 20:14:00,
2013-02-22 15:19:00,40.1,17.7,30.34,SSE,158,0.4,5.1,40,0.00,,,0.00,WUHU216HW,2013-02-22 20:19:00,
2013-02-22 15:24:00,40.0,17.6,30.33,SSW,203,1.3,5.1,40,0.00,,,0.00,WUHU216HW,2013-02-22 20:24:00,
2013-02-22 15:29:00,40.0,18.1,30.34,SW,225,1.6,4.7,41,0.00,,,0.00,WUHU216HW,2013-02-22 20:29:00,
2013-02-22 15:34:00,40.1,18.8,30.34,ENE,68,1.1,2.9,42,0.00,,,0.00,WUHU216HW,2013-02-22 20:34:00,
2013-02-22 15:39:00,40.5,19.1,30.34,SW,225,2.5,2.5,42,0.00,,,0.00,WUHU216HW,2013-02-22 20:39:00,
2013-02-22 15:44:00,40.3,18.5,30.34,SSE,158,3.4,5.4,41,0.00,,,0.00,WUHU216HW,2013-02-22 20:44:00,
2013-02-22 15:49:00,40.1,18.3,30.34,SW,225,2.7,5.4,41,0.00,,,0.00,WUHU216HW,2013-02-22 20:49:00,
2013-02-22 15:54:00,40.0,18.6,30.34,SW,225,1.3,4.7,42,0.00,,,0.00,WUHU216HW,2013-02-22 20:54:00,
2013-02-22 15:59:00,40.0,19.2,30.34,SSE,158,1.1,4.7,43,0.00,,,0.00,WUHU216HW,2013-02-22 20:59:00,
2013-02-22 16:04:00,40.0,19.6,30.34,SSE,158,1.1,2.9,44,0.00,,,0.00,WUHU216HW,2013-02-22 21:04:00,
2013-02-22 16:09:00,39.6,18.8,30.33,SSE,158,1.8,1.8,43,0.00,,,0.00,WUHU216HW,2013-02-22 21:09:00,
2013-02-22 16:14:00,39.6,19.9,30.33,East,90,2.5,2.5,45,0.00,,,0.00,WUHU216HW,2013-02-22 21:14:00,
2013-02-22 16:19:00,39.8,20.0,30.33,East,90,2.0,2.5,45,0.00,,,0.00,WUHU216HW,2013-02-22 21:19:00,
2013-02-22 16:24:00,39.8,20.0,30.32,East,90,1.3,2.5,45,0.00,,,0.00,WUHU216HW,2013-02-22 21:24:00,
2013-02-22 16:29:00,40.0,20.2,30.32,SE,135,1.1,2.2,45,0.00,,,0.00,WUHU216HW,2013-02-22 21:29:00,
2013-02-22 16:34:00,39.8,20.0,30.32,East,90,1.1,2.0,45,0.00,,,0.00,WUHU216HW,2013-02-22 21:34:00,
2013-02-22 16:39:00,39.8,20.0,30.32,ESE,113,0.7,2.2,45,0.00,,,0.00,WUHU216HW,2013-02-22 21:39:00,
2013-02-22 16:44:00,39.6,20.3,30.32,ESE,113,0.9,2.2,46,0.00,,,0.00,WUHU216HW,2013-02-22 21:44:00,
2013-02-22 16:49:00,39.2,20.6,30.32,SE,135,0.4,1.8,47,0.00,,,0.00,WUHU216HW,2013-02-22 21:49:00,
2013-02-22 16:54:00,39.1,19.9,30.31,ENE,68,2.2,2.2,46,0.00,,,0.00,WUHU216HW,2013-02-22 21:54:00,
2013-02-22 16:59:00,39.1,19.9,30.31,East,90,0.7,2.2,46,0.00,,,0.00,WUHU216HW,2013-02-22 21:59:00,
2013-02-22 17:04:00,38.9,19.7,30.32,ESE,113,0.4,2.2,46,0.00,,,0.00,WUHU216HW,2013-02-22 22:04:00,
2013-02-22 17:09:00,38.7,19.5,30.32,SE,135,1.8,2.2,46,0.00,,,0.00,WUHU216HW,2013-02-22 22:09:00,
2013-02-22 17:14:00,38.5,19.9,30.32,ESE,113,0.9,1.8,47,0.00,,,0.00,WUHU216HW,2013-02-22 22:14:00,
2013-02-22 17:19:00,38.3,19.8,30.32,North,0,0.4,2.0,47,0.00,,,0.00,WUHU216HW,2013-02-22 22:19:00,
2013-02-22 17:24:00,38.0,20.0,30.32,NE,45,0.7,2.0,48,0.00,,,0.00,WUHU216HW,2013-02-22 22:24:00,
2013-02-22 17:29:00,37.8,20.4,30.32,South,180,2.5,2.5,49,0.00,,,0.00,WUHU216HW,2013-02-22 22:29:00,
2013-02-22 17:34:00,37.4,20.0,30.32,East,90,1.8,2.5,49,0.00,,,0.00,WUHU216HW,2013-02-22 22:34:00,
2013-02-22 17:39:00,37.1,20.6,30.33,ESE,113,2.5,4.0,51,0.00,,,0.00,WUHU216HW,2013-02-22 22:39:00,
2013-02-22 17:44:00,36.7,21.2,30.33,East,90,0.2,4.0,53,0.00,,,0.00,WUHU216HW,2013-02-22 22:44:00,
2013-02-22 17:49:00,36.5,21.0,30.33,ESE,113,1.6,2.5,53,0.00,,,0.00,WUHU216HW,2013-02-22 22:49:00,
2013-02-22 17:54:00,36.4,21.7,30.33,SSE,158,1.1,2.7,55,0.00,,,0.00,WUHU216HW,2013-02-22 22:54:00,
2013-02-22 17:59:00,36.2,21.2,30.33,ESE,113,0.7,2.7,54,0.00,,,0.00,WUHU216HW,2013-02-22 22:59:00,
2013-02-22 18:04:00,36.2,20.7,30.33,North,0,0.0,2.0,53,0.00,,,0.00,WUHU216HW,2013-02-22 23:04:00,
2013-02-22 18:09:00,36.2,22.4,30.34,North,0,0.0,0.7,57,0.00,,,0.00,WUHU216HW,2013-02-22 23:09:00,
2013-02-22 18:14:00,36.0,22.2,30.34,North,0,0.0,0.0,57,0.00,,,0.00,WUHU216HW,2013-02-22 23:14:00,
2013-02-22 18:19:00,36.0,21.4,30.34,North,0,0.0,0.0,55,0.00,,,0.00,WUHU216HW,2013-02-22 23:19:00,
2013-02-22 18:24:00,35.8,22.1,30.34,North,0,0.0,0.0,57,0.00,,,0.00,WUHU216HW,2013-02-22 23:24:00,
2013-02-22 18:29:00,35.6,22.0,30.35,North,0,0.0,0.0,57,0.00,,,0.00,WUHU216HW,2013-02-22 23:29:00,
2013-02-22 18:34:00,35.5,21.3,30.34,North,0,0.0,0.0,56,0.00,,,0.00,WUHU216HW,2013-02-22 23:34:00,
2013-02-22 18:39:00,35.1,21.4,30.34,North,0,0.0,0.0,57,0.00,,,0.00,WUHU216HW,2013-02-22 23:39:00,
2013-02-22 18:44:00,34.9,21.3,30.35,North,0,0.0,0.0,57,0.00,,,0.00,WUHU216HW,2013-02-22 23:44:00,
2013-02-22 18:49:00,34.9,20.8,30.34,North,0,0.0,0.0,56,0.00,,,0.00,WUHU216HW,2013-02-22 23:49:00,
2013-02-22 18:54:00,34.7,21.1,30.34,North,0,0.0,0.0,57,0.00,,,0.00,WUHU216HW,2013-02-22 23:54:00,
2013-02-22 18:59:00,34.6,20.9,30.34,North,0,0.0,0.0,57,0.00,,,0.00,WUHU216HW,2013-02-22 23:59:00,
2013-02-22 19:04:00,34.6,21.2,30.35,North,0,0.0,0.0,58,0.00,,,0.00,WUHU216HW,2013-02-23 00:04:00,
2013-02-22 19:09:00,34.6,20.9,30.34,North,0,0.0,0.0,57,0.00,,,0.00,WUHU216HW,2013-02-23 00:09:00,
2013-02-22 19:14:00,34.4,21.1,30.34,North,0,0.0,0.0,58,0.00,,,0.00,WUHU216HW,2013-02-23 00:14:00,
2013-02-22 19:19:00,34.2,21.3,30.34,North,0,0.0,0.0,59,0.00,,,0.00,WUHU216HW,2013-02-23 00:19:00,
2013-02-22 19:24:00,34.2,21.8,30.34,SSE,158,0.2,1.1,60,0.00,,,0.00,WUHU216HW,2013-02-23 00:24:00,
2013-02-22 19:29:00,34.2,21.3,30.35,SSE,158,0.2,1.1,59,0.00,,,0.00,WUHU216HW,2013-02-23 00:29:00,
2013-02-22 19:34:00,34.0,21.2,30.35,South,180,0.4,1.6,59,0.00,,,0.00,WUHU216HW,2013-02-23 00:34:00,
2013-02-22 19:39:00,34.0,21.6,30.35,SSE,158,0.4,1.6,60,0.00,,,0.00,WUHU216HW,2013-02-23 00:39:00,
2013-02-22 19:44:00,33.8,21.4,30.35,East,90,0.4,1.1,60,0.00,,,0.00,WUHU216HW,2013-02-23 00:44:00,
2013-02-22 19:49:00,33.8,21.4,30.34,NE,45,1.1,1.6,60,0.00,,,0.00,WUHU216HW,2013-02-23 00:49:00,
2013-02-22 19:54:00,33.5,21.4,30.34,NE,45,0.0,1.6,61,0.00,,,0.00,WUHU216HW,2013-02-23 00:54:00,
2013-02-22 19:59:00,33.5,21.4,30.35,SSE,158,0.4,1.1,61,0.00,,,0.00,WUHU216HW,2013-02-23 00:59:00,
2013-02-22 20:04:00,33.5,21.4,30.35,SSE,158,0.2,1.1,61,0.00,,,0.00,WUHU216HW,2013-02-23 01:04:00,
2013-02-22 20:09:00,33.5,21.8,30.34,East,90,0.0,0.9,62,0.00,,,0.00,WUHU216HW,2013-02-23 01:09:00,
2013-02-22 20:14:00,33.5,22.5,30.35,WSW,248,0.7,1.1,64,0.00,,,0.00,WUHU216HW,2013-02-23 01:14:00,
2013-02-22 20:19:00,33.3,22.4,30.35,SSW,203,1.1,1.3,64,0.00,,,0.00,WUHU216HW,2013-02-23 01:19:00,
2013-02-22 20:24:00,33.3,21.7,30.35,SW,225,0.4,1.3,62,0.00,,,0.00,WUHU216HW,2013-02-23 01:24:00,
2013-02-22 20:29:00,33.1,22.2,30.35,SSW,203,0.7,0.9,64,0.00,,,0.00,WUHU216HW,2013-02-23 01:29:00,
2013-02-22 20:34:00,33.1,21.9,30.35,WSW,248,0.0,1.1,63,0.00,,,0.00,WUHU216HW,2013-02-23 01:34:00,
2013-02-22 20:39:00,33.1,22.2,30.35,SSW,203,0.0,1.3,64,0.00,,,0.00,WUHU216HW,2013-02-23 01:39:00,
2013-02-22 20:44:00,33.1,23.3,30.35,ESE,113,0.4,1.3,67,0.00,,,0.00,WUHU216HW,2013-02-23 01:44:00,
2013-02-22 20:49:00,33.1,22.2,30.34,East,90,0.4,0.9,64,0.00,,,0.00,WUHU216HW,2013-02-23 01:49:00,
2013-02-22 20:54:00,33.1,22.2,30.35,ESE,113,0.4,0.9,64,0.00,,,0.00,WUHU216HW,2013-02-23 01:54:00,
2013-02-22 20:59:00,32.9,22.1,30.34,East,90,0.2,1.1,64,0.00,,,0.00,WUHU216HW,2013-02-23 01:59:00,
2013-02-22 21:04:00,32.9,22.1,30.34,East,90,0.2,1.1,64,0.00,,,0.00,WUHU216HW,2013-02-23 02:04:00,
2013-02-22 21:09:00,32.9,22.1,30.35,East,90,0.0,0.7,64,0.00,,,0.00,WUHU216HW,2013-02-23 02:09:00,
2013-02-22 21:14:00,32.9,22.8,30.35,SSW,203,0.0,0.4,66,0.00,,,0.00,WUHU216HW,2013-02-23 02:14:00,
2013-02-22 21:19:00,32.8,22.2,30.35,SSW,203,0.4,0.4,65,0.00,,,0.00,WUHU216HW,2013-02-23 02:19:00,
2013-02-22 21:24:00,32.8,22.2,30.35,SSW,203,0.0,0.4,65,0.00,,,0.00,WUHU216HW,2013-02-23 02:24:00,
2013-02-22 21:29:00,32.8,22.2,30.34,ESE,113,0.2,0.9,65,0.00,,,0.00,WUHU216HW,2013-02-23 02:29:00,
2013-02-22 21:34:00,32.6,22.1,30.35,ENE,68,0.0,0.9,65,0.00,,,0.00,WUHU216HW,2013-02-23 02:34:00,
2013-02-22 21:39:00,32.6,22.1,30.35,ENE,68,0.0,0.4,65,0.00,,,0.00,WUHU216HW,2013-02-23 02:39:00,
2013-02-22 21:44:00,32.6,22.4,30.35,ENE,68,0.0,0.0,66,0.00,,,0.00,WUHU216HW,2013-02-23 02:44:00,
2013-02-22 21:49:00,32.4,22.3,30.34,ENE,68,0.2,1.1,66,0.00,,,0.00,WUHU216HW,2013-02-23 02:49:00,
2013-02-22 21:54:00,32.4,22.3,30.35,ENE,68,0.0,1.1,66,0.00,,,0.00,WUHU216HW,2013-02-23 02:54:00,
2013-02-22 21:59:00,32.4,22.7,30.35,East,90,0.2,0.4,67,0.00,,,0.00,WUHU216HW,2013-02-23 02:59:00,
2013-02-22 22:04:00,32.4,22.7,30.34,East,90,0.9,1.1,67,0.00,,,0.00,WUHU216HW,2013-02-23 03:04:00,
2013-02-22 22:09:00,32.4,22.7,30.34,East,90,0.4,1.1,67,0.00,,,0.00,WUHU216HW,2013-02-23 03:09:00,
2013-02-22 22:14:00,32.4,22.7,30.34,East,90,0.0,0.9,67,0.00,,,0.00,WUHU216HW,2013-02-23 03:14:00,
2013-02-22 22:19:00,32.4,22.7,30.34,East,90,0.0,0.7,67,0.00,,,0.00,WUHU216HW,2013-02-23 03:19:00,
2013-02-22 22:24:00,32.4,23.4,30.34,East,90,0.0,0.0,69,0.00,,,0.00,WUHU216HW,2013-02-23 03:24:00,
2013-02-22 22:29:00,32.2,22.5,30.34,East,90,0.0,0.0,67,0.00,,,0.00,WUHU216HW,2013-02-23 03:29:00,
2013-02-22 22:34:00,32.4,23.1,30.34,East,90,0.0,0.0,68,0.00,,,0.00,WUHU216HW,2013-02-23 03:34:00,
2013-02-22 22:39:00,32.4,23.1,30.34,East,90,0.0,0.0,68,0.00,,,0.00,WUHU216HW,2013-02-23 03:39:00,
2013-02-22 22:44:00,32.4,23.1,30.34,SW,225,0.7,0.7,68,0.00,,,0.00,WUHU216HW,2013-02-23 03:44:00,
2013-02-22 22:49:00,32.4,23.4,30.34,SW,225,0.4,0.9,69,0.00,,,0.00,WUHU216HW,2013-02-23 03:49:00,
2013-02-22 22:54:00,32.4,23.4,30.34,SW,225,0.0,0.9,69,0.00,,,0.00,WUHU216HW,2013-02-23 03:54:00,
2013-02-22 22:59:00,32.4,23.8,30.34,SW,225,0.4,0.7,70,0.00,,,0.00,WUHU216HW,2013-02-23 03:59:00,
2013-02-22 23:04:00,32.4,23.4,30.34,SW,225,0.9,0.9,69,0.00,,,0.00,WUHU216HW,2013-02-23 04:04:00,
2013-02-22 23:09:00,32.4,23.4,30.34,WSW,248,0.4,1.1,69,0.00,,,0.00,WUHU216HW,2013-02-23 04:09:00,
2013-02-22 23:14:00,32.6,23.5,30.34,SSW,203,0.0,1.1,69,0.00,,,0.00,WUHU216HW,2013-02-23 04:14:00,
2013-02-22 23:19:00,32.6,23.9,30.34,ESE,113,0.0,1.1,70,0.00,,,0.00,WUHU216HW,2013-02-23 04:19:00,
2013-02-22 23:24:00,32.6,23.5,30.34,SSW,203,1.1,1.1,69,0.00,,,0.00,WUHU216HW,2013-02-23 04:24:00,
2013-02-22 23:29:00,32.4,23.8,30.34,SSW,203,0.7,1.1,70,0.00,,,0.00,WUHU216HW,2013-02-23 04:29:00,
2013-02-22 23:34:00,32.6,23.9,30.34,South,180,0.0,1.1,70,0.00,,,0.00,WUHU216HW,2013-02-23 04:34:00,
2013-02-22 23:39:00,32.4,23.8,30.34,SW,225,0.0,0.7,70,0.00,,,0.00,WUHU216HW,2013-02-23 04:39:00,
2013-02-22 23:44:00,32.4,23.8,30.34,SW,225,0.0,0.2,70,0.00,,,0.00,WUHU216HW,2013-02-23 04:44:00,
2013-02-22 23:49:00,32.4,23.8,30.34,SSW,203,0.0,0.9,70,0.00,,,0.00,WUHU216HW,2013-02-23 04:49:00,
2013-02-22 23:54:00,32.4,23.4,30.34,SSW,203,0.0,0.9,69,0.00,,,0.00,WUHU216HW,2013-02-23 04:54:00,
2013-02-22 23:59:00,32.4,23.4,30.34,SSW,203,0.2,0.2,69,0.00,,,0.00,WUHU216HW,2013-02-23 04:59:00,